DMSP 5D-2 F13 DEB, 40558

Orbit data source: Space-Track

DMSP 5D-2 F13 DEB, 40558 is space debris in SSO originally from a launch on Fri, 24 Mar 1995 UTC launched from the Air Force Western Test Range (AFWTR). Debris objects in space refer to the collection of defunct objects orbiting the Earth. Examples of debris include non-operational satellites, rocket bodies, and fragments generated from explosions, collisions, or faulty payload assembly.

Loading next visibility...
Identifier
40558, 1995-015DR
Orbit
SSO
Country
Flag of USUS
Related business
Manufacturer
Unknown
Mission
Spacecraft
Bus & Motor
Unknown
Mass
Unknown
Launch date (UTC)
1995-03-24 (31 years ago)
Launch vehicle
Unknown
Launch site
Air Force Western Test Range (AFWTR)
Object type
Payload
Rocket body
Debris
Shape & HBR
Unknown shape, 0.1 m
Radar Cross Section
Medium (>0.1 m² and <1 m²)

Expand to show TLE details & history
Last TLE update: 3 days ago

TLE from 3 days ago
0 DMSP 5D-2 F13 DEB
1 40558U 95015DR  26250.93550980  .00002259  00000-0  97245-3 0  9994
2 40558  98.9677 247.0283 0041825 181.2536 178.8544 14.25180813588339
Epoch: 2026-09-07T22:27Z
TLE epoch observation values (Epoch: 2026-09-07T22:27:08.046Z)
Latitude
-0.00007°
Longitude
-76.76435°
Altitude
840.854 km
Speed
7.417 km/s
True Right ascension
16h 28m 06s
True Declination
0° 00' 00"
Sunlit
Object was in daylight at epoch
Visualization orbit readout
Latitude
Unknown
Longitude
Unknown
Altitude
Unknown
Speed
Unknown
Apparent Right ascension
Unknown
Apparent Declination
Unknown
Sunlit
N/A
Visualization observer readout
Local Sidereal Time
02:30:19
Azimuth
Unknown
Elevation
Unknown
Doppler factor
Unknown
Orbital elements
Apogee altitude
835.093 km
Perigee altitude
775.005 km
Semi-major axis
7,183.186 km
Eccentricity
0.00418
Inclination
98.9677°
RAAN
247.0283°
Arg. of periapsis
181.2536°
True anomaly
178.86393°
Mean anomaly
178.8544°
Eccentric anomaly
178.85917°
Mean motion
3.56507 °/min
Orbital period
100.98 mins
BSTAR
0.00097245

Documentation

Showing up to 5 results
|